Starlink 6048

operational
NORAD ID: 56459 Int'l Des: 2023-064 Owner: SPXS Country: US Constellation: starlink
LEOCIRCULAR

关于 Starlink 6048

正在加载描述...

实时位置

正在加载3D地球...

即将过境

高度历史

Altitude vs Time

uPlot chart will show altitude changes over time

两行轨道根数

1 56459U 23064M 25303.20289333 .00000508 00000-0 50394-4 0 9995
2 56459 69.9985 113.3310 0002993 271.1824 88.8992 14.98330780135698
Epoch: Oct 30, 2025 • Age: 17 hours

当前状态

高度 585.7 km
速度 7.57 km/s
星下点 -40.81°S, 58.02°W
发射日期 May 10, 2023
运行时间 2.4 years
类型 internet

技术详情

分类 Payload
质量 305.00 kg
干质量 290.00 kg
总质量 305.00 kg
长度 0.20 m
直径 2.80 m
跨度 9.00 m
形状 Box + pan
制造商 SPXS
平台类型 Starlink
阶段状态 In Orbit
所有者/国家 SPXS/US

大型星座

Loading constellations...